Location: *
(11.7485°N, 79.7483°E)
Time: 10:42:50
(UTC+00:00)

H-2A R/B - Pass Details

Date: 22 January 2021
Orbit: 499 x 540 km, 97.3° (Epoch: 13 February)

Event Time Altitude Azimuth Distance (km) Brightness Sun altitude
Rises 00:20:05 0° 357° (N) 2,598 6.0 -11.5°
Reaches altitude 10° 00:22:17 10° 347° (NNW) 1,720 5.0 -10.9°
Maximum altitude 00:25:38 33° 282° (WNW) 878 3.3 -10.2°
Drops below altitude 10° 00:29:02 10° 217° (SW) 1,742 5.2 -9.4°
Sets 00:31:17 0° 208° (SSW) 2,637 6.2 -8.9°
